Date,TemperatureHighF,TemperatureAvgF,TemperatureLowF,DewpointHighF,DewpointAvgF,DewpointLowF,HumidityHigh,HumidityAvg,HumidityLow,PressureMaxIn,PressureMinIn,WindSpeedMaxMPH,WindSpeedAvgMPH,GustSpeedMaxMPH,PrecipitationSumIn
2013-1-1,50,46,42,42,34,21,81,65,41,30.08,29.90,7,1,13,0.02
2013-1-2,43,40,36,38,30,23,85,69,55,30.20,29.96,6,1,7,0.00
2013-1-3,44,38,33,28,24,21,67,60,41,30.24,30.15,6,0,7,0.00
2013-1-4,42,36,31,24,22,20,65,57,48,30.32,30.20,8,2,10,0.00
2013-1-5,48,40,33,31,25,21,68,55,42,30.40,30.21,11,1,14,0.00
2013-1-6,48,43,37,34,31,29,73,63,55,30.21,30.06,8,1,9,0.00
2013-1-7,47,40,32,30,26,23,70,59,49,30.46,30.17,13,1,15,0.00
2013-1-8,52,37,26,37,28,20,79,70,56,30.46,30.35,13,0,26,0.00
2013-1-9,58,45,32,49,38,26,83,76,64,30.44,30.35,8,1,10,0.00
2013-1-10,57,49,42,42,36,32,74,61,46,30.57,30.43,21,1,21,0.00
2013-1-11,46,44,43,40,37,33,89,79,66,30.44,30.15,3,0,4,0.06
2013-1-12,68,53,43,60,49,40,91,86,76,30.18,30.09,31,1,34,0.00
2013-1-13,68,60,53,62,55,50,94,86,74,30.11,29.99,28,1,34,0.00
2013-1-14,65,57,50,58,53,48,93,88,77,30.24,30.02,25,1,28,0.55
2013-1-15,50,44,40,48,42,38,93,93,92,30.27,30.10,7,0,7,1.81
2013-1-16,48,43,40,46,41,38,94,93,92,30.11,29.93,6,0,12,0.41
2013-1-17,47,40,34,45,38,32,93,91,88,30.17,29.99,6,0,8,0.53
2013-1-18,36,33,30,32,29,26,92,84,74,30.51,30.17,22,1,24,0.57
2013-1-19,44,33,26,37,29,22,88,84,72,30.46,30.09,27,4,28,0.04
2013-1-20,49,42,33,35,31,27,87,67,49,30.09,29.99,14,2,14,0.00
2013-1-21,49,40,32,30,22,9,74,52,34,30.09,29.86,13,2,22,0.00
2013-1-22,32,25,20,10,2,0,43,38,34,30.27,29.99,9,3,11,0.00
2013-1-23,34,27,20,18,8,2,58,45,31,30.33,30.02,8,1,9,0.00
2013-1-24,36,28,22,23,10,4,62,47,36,30.53,29.97,13,4,17,0.00
2013-1-25,25,24,21,19,14,7,78,65,51,30.50,30.04,8,0,8,0.00
2013-1-26,40,32,23,28,23,17,82,70,59,30.43,30.04,8,1,9,0.08
2013-1-27,37,30,23,28,22,17,78,72,67,30.59,30.43,7,0,7,0.00
2013-1-28,54,41,33,48,36,25,89,81,71,30.45,30.16,16,0,20,0.08
2013-1-29,70,58,50,55,50,45,86,74,57,30.18,29.99,29,1,29,0.00
2013-1-30,68,61,51,62,56,47,93,86,79,30.00,29.35,18,3,35,2.55
2013-1-31,51,39,35,47,27,20,88,62,50,29.94,29.39,15,4,16,0.00